Regional Weather Roundup
Issued by NWS

Home | Current Version | Previous Version | Text Only | Print | Product List | Glossary On
Versions: 1 2 3 4 5 6 7 8 9 10 11 12 13 14 15 16 17 18 19 20 21 22 23 24 25 26 27 28 29 30 31 32 33 34 35 36 37 38 39 40 41 42 43 44 45 46 47 48 49 50
000
ASUS43 KFSD 232010
RWRSD

WEATHER ROUNDUP FOR SOUTH DAKOTA
NATIONAL WEATHER SERVICE SIOUX FALLS SD
300 PM CDT SAT JUL 23 2016

NOTE: "FAIR" INDICATES FEW OR NO CLOUDS BELOW 12,000 FEET WITH NO
SIGNIFICANT WEATHER AND/OR OBSTRUCTIONS TO VISIBILITY.


SDZ001>005-009-010-012>017-232100-
NORTHWEST AND NORTH CENTRAL SOUTH DAKOTA

CITY           SKY/WX    TMP DP  RH WIND       PRES   REMARKS
BUFFALO          N/A     88  41  19 NW22G28   29.88S
FAITH            N/A     88  46  23 N21G35    29.88R
MOBRIDGE       MOSUNNY   85  69  58 NW14G24   29.77R
$$

SDZ012>016-024>037-041>051-057-063-072>074-232100-
SOUTHWEST AND SOUTH CENTRAL SOUTH DAKOTA

CITY           SKY/WX    TMP DP  RH WIND       PRES   REMARKS
RAPID CTY ARPT SUNNY     88  43  20 N25G37    29.93F
PIERRE         SUNNY     93  66  40 NW23G33   29.75R HX  96
CUSTER         SUNNY     86  21   9 W12G18    30.09S
ELLSWORTH AFB  SUNNY     88  43  20 N25G33    29.92F
PHILIP         SUNNY     93  54  26 NW24G37   29.84R
PINE RIDGE     SUNNY     92  50  23 N14       29.95S
WINNER         FAIR     100  61  27 NW18G25   29.77S HX 101
$$

SDZ004>011-016>023-039-040-232100-
NORTHEAST SOUTH DAKOTA

CITY           SKY/WX    TMP DP  RH WIND       PRES   REMARKS
ABERDEEN       PTSUNNY   86  73  65 S5        29.73F
WATERTOWN      CLOUDY    88  73  61 S9        29.78F HX  95
BROOKINGS      MOSUNNY   87  74  64 S13G22    29.77  HX  95
SISSETON         N/A     75  73  93 N13       29.77S
$$

SDZ017-020-022-023-036>040-048>070-232100-
SOUTHEAST SOUTH DAKOTA

CITY           SKY/WX    TMP DP  RH WIND       PRES   REMARKS
SIOUX FALLS    MOSUNNY   90  73  57 S12       29.77F HX  98
HURON          SUNNY     92  70  48 SW12      29.72S HX  97
CHAMBERLAIN    SUNNY     99  69  37 W9G22     29.73F HX 106
MITCHELL       SUNNY     93  70  46 SW9G21    29.74R HX  99
YANKTON        SUNNY     93  72  49 S10G17    29.73S HX 100
$$

ABBREVIATIONS USED IN REMARKS
   TC - TEMPERATURE IN CELSIUS
  WCI - WIND CHILL INDEX
   HX - HEAT INDEX
  VSB - VISIBILITY




USA.gov is the U.S. government's official web portal to all federal, state and local government web resources and services.